DC4AT Weather Reports


Display with metric or nautical units.
time (UTC)temp
F
wind
direction
speed
MPH
gust
MPH
rain 1hr
in
rain 24hr
in
rain mn
in
humidity
%
barometer
mb
20260502164342 77 268 0.0 2.0 0.00 0.00 0.00 38 1015.6
20260502163342 77 264 3.0 5.0 0.00 0.00 0.00 33 1015.6
20260502162342 77 257 3.0 7.0 0.00 0.00 0.00 30 1015.8
20260502161342 77 263 3.0 6.0 0.00 0.00 0.00 32 1016.0
20260502160342 77 275 3.0 4.0 0.00 0.00 0.00 31 1016.0
20260502152342 78 266 4.0 10.0 0.00 0.00 0.00 30 1016.5
20260502151342 78 317 6.0 11.0 0.00 0.00 0.00 31 1016.5
20260502150342 78 246 4.0 8.0 0.00 0.00 0.00 31 1016.6
20260502130343 77 254 5.0 10.0 0.00 0.00 0.00 35 1017.8
20260502123343 77 259 3.0 9.0 0.00 0.00 0.00 36 1018.4
20260502122343 76 272 3.0 8.0 0.00 0.00 0.00 38 1018.4
20260502121343 75 57 2.0 6.0 0.00 0.00 0.00 40 1018.5
20260502120343 74 53 3.0 7.0 0.00 0.00 0.00 40 1018.7
20260502115343 74 36 4.0 8.0 0.00 0.00 0.00 40 1018.9
20260502114343 74 59 3.0 8.0 0.00 0.00 0.00 41 1019.0
20260502113343 74 15 3.0 5.0 0.00 0.00 0.00 40 1019.4
20260502112343 74 63 3.0 5.0 0.00 0.00 0.00 40 1019.5
20260502111343 74 230 3.0 8.0 0.00 0.00 0.00 37 1019.6
20260502110343 74 312 3.0 7.0 0.00 0.00 0.00 40 1019.7
20260502105343 73 323 3.0 8.0 0.00 0.00 0.00 39 1019.8
20260502104343 73 15 3.0 6.0 0.00 0.00 0.00 40 1019.9
20260502103343 73 339 3.0 7.0 0.00 0.00 0.00 39 1020.1
20260502102343 73 331 2.0 8.0 0.00 0.00 0.00 40 1020.3
20260502101343 72 221 3.0 5.0 0.00 0.00 0.00 41 1020.6
20260502100343 72 5 2.0 6.0 0.00 0.00 0.00 41 1020.6
20260502091343 69 201 3.0 9.0 0.00 0.00 0.00 45 1021.2
20260502090343 68 53 2.0 6.0 0.00 0.00 0.00 53 1021.2
20260502071344 62 53 1.0 6.0 0.00 0.00 0.00 58 1022.1
20260502070344 61 45 1.0 3.0 0.00 0.00 0.00 61 1022.2
20260502065344 61 0 2.0 6.0 0.00 0.00 0.00 60 1022.2
20260502064344 60 61 1.0 6.0 0.00 0.00 0.00 61 1022.2
20260502063344 59 84 1.0 3.0 0.00 0.00 0.00 64 1022.2
20260502062344 57 69 1.0 3.0 0.00 0.00 0.00 67 1022.2
20260502061344 56 69 1.0 3.0 0.00 0.00 0.00 69 1022.2
20260502060344 54 99 1.0 3.0 0.00 0.00 0.00 71 1022.4
20260502055344 54 83 1.0 3.0 0.00 0.00 0.00 72 1022.4
20260502054344 53 116 0.0 3.0 0.00 0.00 0.00 74 1022.5
20260502053344 52 36 0.0 1.0 0.00 0.00 0.00 76 1022.6
20260502052344 51 110 0.0 2.0 0.00 0.00 0.00 76 1022.7
20260502051344 50 110 1.0 3.0 0.00 0.00 0.00 77 1022.6
20260502050344 49 84 1.0 3.0 0.00 0.00 0.00 80 1022.6
20260502045344 48 240 0.0 0.0 0.00 0.00 0.00 79 1022.6
20260502044344 48 240 1.0 2.0 0.00 0.00 0.00 78 1022.6
20260502043344 49 200 1.0 3.0 0.00 0.00 0.00 78 1022.7
20260502042344 48 68 1.0 3.0 0.00 0.00 0.00 78 1022.5
20260502041344 49 84 1.0 2.0 0.00 0.00 0.00 77 1022.6
20260502040344 49 90 1.0 2.0 0.00 0.00 0.00 77 1022.7
20260502035344 49 86 1.0 2.0 0.00 0.00 0.00 76 1022.7
20260502034344 49 120 0.0 3.0 0.00 0.00 0.00 75 1022.8
20260502033344 50 145 1.0 3.0 0.00 0.00 0.00 74 1022.7
20260502032344 50 94 4.0 9.0 0.00 0.00 0.00 74 1022.8
20260502031344 51 75 3.0 7.0 0.00 0.00 0.00 73 1022.8
20260502030344 51 108 5.0 10.0 0.00 0.00 0.00 73 1022.8
20260502025344 51 91 5.0 10.0 0.00 0.00 0.00 73 1022.9
20260502024344 51 84 4.0 9.0 0.00 0.00 0.00 73 1022.9
20260502023344 50 53 4.0 10.0 0.00 0.00 0.00 74 1023.1
20260502022344 50 93 2.0 7.0 0.00 0.00 0.00 75 1023.0
20260502021344 50 105 1.0 7.0 0.00 0.00 0.00 75 1023.1
20260502020344 50 63 0.0 0.0 0.00 0.00 0.00 75 1023.2
20260502015344 50 78 0.0 2.0 0.00 0.00 0.00 75 1023.2
20260502014344 50 67 1.0 2.0 0.00 0.00 0.00 75 1023.2
20260502013344 50 80 1.0 2.0 0.00 0.00 0.00 75 1023.4
20260502012344 51 78 1.0 3.0 0.00 0.00 0.00 74 1023.5
20260502011344 51 169 0.0 1.0 0.00 0.00 0.00 73 1023.7
20260502010344 52 170 1.0 1.0 0.00 0.00 0.00 71 1023.7
20260502005344 52 111 1.0 2.0 0.00 0.00 0.00 70 1023.7
20260502004344 53 103 2.0 4.0 0.00 0.00 0.00 69 1023.8
20260502003344 53 118 2.0 7.0 0.00 0.00 0.00 68 1023.8
20260502002344 54 91 1.0 4.0 0.00 0.00 0.00 67 1023.8
20260502001344 54 91 3.0 6.0 0.00 0.00 0.00 66 1023.8
20260502000347 54 104 3.0 10.0 0.00 0.00 0.00 67 1023.8
20260501235345 54 97 2.0 4.0 0.00 0.00 0.00 67 1023.9
20260501234345 54 111 2.0 4.0 0.00 0.00 0.00 68 1024.0
20260501233345 53 87 1.0 6.0 0.00 0.00 0.00 69 1024.1
20260501232345 53 113 1.0 2.0 0.00 0.00 0.00 69 1024.2
20260501231345 53 86 1.0 7.0 0.00 0.00 0.00 70 1024.2
20260501230345 53 66 0.0 0.0 0.00 0.00 0.00 70 1024.3
20260501225345 53 66 0.0 1.0 0.00 0.00 0.00 69 1024.4
20260501224345 54 66 1.0 2.0 0.00 0.00 0.00 68 1024.4
20260501223345 54 67 0.0 1.0 0.00 0.00 0.00 67 1024.5
20260501222345 55 68 0.0 1.0 0.00 0.00 0.00 65 1024.5
20260501221345 55 48 1.0 3.0 0.00 0.00 0.00 65 1024.4
20260501220345 56 78 1.0 1.0 0.00 0.00 0.00 65 1024.4
20260501215345 56 92 1.0 5.0 0.00 0.00 0.00 64 1024.5
20260501214345 56 90 1.0 3.0 0.00 0.00 0.00 63 1024.4
20260501213345 57 99 1.0 4.0 0.00 0.00 0.00 62 1024.5
20260501212345 57 116 1.0 3.0 0.00 0.00 0.00 61 1024.5
20260501211345 57 103 1.0 4.0 0.00 0.00 0.00 61 1024.5
20260501210345 58 80 2.0 4.0 0.00 0.00 0.00 60 1024.6
20260501205345 58 98 0.0 3.0 0.00 0.00 0.00 59 1024.6
20260501204345 59 91 2.0 3.0 0.00 0.00 0.00 58 1024.6
20260501203345 59 111 3.0 6.0 0.00 0.00 0.00 57 1024.6
20260501202345 60 92 4.0 6.0 0.00 0.00 0.00 56 1024.7
20260501201345 60 94 3.0 8.0 0.00 0.00 0.00 56 1024.7
20260501200345 60 86 4.0 8.0 0.00 0.00 0.00 56 1024.7
20260501195345 60 105 3.0 6.0 0.00 0.00 0.00 55 1024.7
20260501194345 61 97 3.0 5.0 0.00 0.00 0.00 54 1024.7
20260501193345 61 95 2.0 4.0 0.00 0.00 0.00 54 1024.8
20260501192345 61 69 3.0 7.0 0.00 0.00 0.00 54 1024.8
20260501191345 61 96 2.0 5.0 0.00 0.00 0.00 54 1024.8
20260501190345 62 115 1.0 6.0 0.00 0.00 0.00 54 1024.9
20260501185345 62 91 2.0 4.0 0.00 0.00 0.00 53 1024.8
20260501184345 63 94 1.0 6.0 0.00 0.00 0.00 53 1024.7
20260501183345 64 88 1.0 3.0 0.00 0.00 0.00 53 1024.7
20260501182345 65 88 1.0 3.0 0.00 0.00 0.00 52 1024.7
20260501181345 66 84 1.0 3.0 0.00 0.00 0.00 51 1024.8
20260501180345 66 87 2.0 4.0 0.00 0.00 0.00 49 1024.8
20260501175345 67 78 2.0 7.0 0.00 0.00 0.00 49 1024.7
20260501174345 68 83 1.0 3.0 0.00 0.00 0.00 48 1024.7
20260501173345 68 59 1.0 4.0 0.00 0.00 0.00 47 1024.7
20260501172345 68 79 2.0 4.0 0.00 0.00 0.00 46 1024.8
20260501171345 68 68 3.0 5.0 0.00 0.00 0.00 44 1024.9
20260501170345 69 36 3.0 5.0 0.00 0.00 0.00 44 1024.9